EW2167 Weather Reports


Display with metric or nautical units.
time (UTC)temp
F
wind
direction
speed
MPH
gust
MPH
rain 1hr
in
rain 24hr
in
rain mn
in
humidity
%
barometer
mb
20260504043036 51 215 4.0 9.0 0.00 0.00 0.00 69 1012.6
20260504041533 51 212 4.0 8.0 0.00 0.00 0.00 69 1012.8
20260504040030 51 208 4.0 8.0 0.00 0.00 0.00 69 1013.0
20260504034530 51 207 4.0 7.0 0.00 0.00 0.00 68 1013.0
20260504033029 50 216 4.0 7.0 0.00 0.00 0.00 70 1013.2
20260504031532 51 206 3.0 6.0 0.00 0.00 0.00 70 1013.3
20260504030034 51 209 3.0 6.0 0.00 0.00 0.00 69 1013.3
20260504024538 51 208 3.0 5.0 0.00 0.00 0.00 70 1013.3
20260504023030 52 207 2.0 6.0 0.00 0.00 0.00 69 1013.3
20260504021532 52 212 2.0 7.0 0.00 0.00 0.00 68 1013.3
20260504020029 53 209 2.0 5.0 0.00 0.00 0.00 66 1013.2
20260504014532 53 209 2.0 4.0 0.00 0.00 0.00 66 1013.1
20260504013037 53 209 1.0 5.0 0.00 0.00 0.00 65 1013.2
20260504011530 54 0 1.0 6.0 0.00 0.00 0.00 63 1013.0
20260504010032 55 0 1.0 9.0 0.00 0.00 0.00 60 1012.7
20260504004532 55 227 5.0 9.0 0.00 0.00 0.00 62 1013.2
20260504003040 55 227 4.0 10.0 0.00 0.00 0.00 58 1013.4
20260504001531 56 217 4.0 8.0 0.00 0.00 0.00 59 1013.4
20260504000033 58 235 4.0 9.0 0.00 0.00 0.00 49 1013.4
20260503234532 58 229 5.0 16.0 0.00 0.00 0.00 48 1013.3
20260503233037 59 211 6.0 12.0 0.00 0.00 0.00 48 1013.2
20260503231530 59 207 3.0 13.0 0.00 0.00 0.00 45 1013.1
20260503230031 59 229 5.0 18.0 0.00 0.00 0.00 44 1013.5
20260503224531 60 213 6.0 15.0 0.00 0.00 0.00 44 1013.7
20260503223032 60 207 6.0 14.0 0.00 0.00 0.00 44 1014.0
20260503221533 60 218 6.0 13.0 0.00 0.00 0.00 42 1014.0
20260503220032 61 217 9.0 17.0 0.00 0.00 0.00 42 1014.4
20260503214532 62 209 7.0 21.0 0.00 0.00 0.00 44 1014.6
20260503213032 62 234 5.0 17.0 0.00 0.00 0.00 44 1014.8
20260503211531 61 210 9.0 18.0 0.00 0.00 0.00 42 1014.9
20260503210033 62 217 8.0 21.0 0.00 0.00 0.00 41 1015.0
20260503204531 62 237 7.0 19.0 0.00 0.00 0.00 42 1015.3
20260503203036 61 256 8.0 20.0 0.00 0.00 0.00 40 1015.5
20260503201532 62 227 5.0 22.0 0.00 0.00 0.00 42 1015.4
20260503200030 63 238 8.0 16.0 0.00 0.00 0.00 39 1015.5
20260503194532 61 215 5.0 21.0 0.00 0.00 0.00 39 1015.8
20260503193030 60 238 6.0 15.0 0.00 0.00 0.00 43 1016.0
20260503191532 60 221 4.0 16.0 0.00 0.00 0.00 41 1016.6
20260503190033 60 222 7.0 17.0 0.00 0.00 0.00 41 1016.8
20260503184536 61 217 8.0 20.0 0.00 0.00 0.00 42 1017.1
20260503183031 60 229 8.0 18.0 0.00 0.00 0.00 41 1017.3
20260503181531 61 226 3.0 13.0 0.00 0.00 0.00 40 1017.4
20260503180035 60 217 5.0 17.0 0.00 0.00 0.00 41 1017.6
20260503174533 60 197 5.0 17.0 0.00 0.00 0.00 43 1017.7
20260503173035 59 209 5.0 17.0 0.00 0.00 0.00 40 1017.9
20260503171545 60 190 10.0 18.0 0.00 0.00 0.00 40 1018.2
20260503081534 33 30 0.0 2.0 0.00 0.00 0.00 87 1018.5
20260503071552 35 30 0.0 0.0 0.00 0.00 0.00 84 1018.4
20260503054539 35 0 0.0 2.0 0.00 0.00 0.00 85 1018.9
20260503053037 35 0 0.0 2.0 0.00 0.00 0.00 85 1018.9
20260503051532 36 0 0.0 1.0 0.00 0.00 0.00 81 1018.8
20260503050030 35 0 0.0 0.0 0.00 0.00 0.00 84 1018.9
20260503044544 35 0 0.0 0.0 0.00 0.00 0.00 83 1018.9